TimeMST,TemperatureF,Dew PointF,Humidity,Sea Level PressureIn,VisibilityMPH,Wind Direction,Wind SpeedMPH,Gust SpeedMPH,PrecipitationIn,Events,Conditions,WindDirDegrees,DateUTC
12:53 AM,1.9,-2.9,80,30.34,6.0,SW,3.5,-,N/A,,Haze,230,2013-01-07 07:53:00
1:53 AM,1.0,-2.9,83,30.36,6.0,ESE,4.6,-,N/A,,Clear,110,2013-01-07 08:53:00
2:53 AM,1.9,-0.9,88,30.35,6.0,NNW,3.5,-,N/A,,Clear,340,2013-01-07 09:53:00
3:45 AM,-0.4,-4.0,85,30.15,6.0,Calm,Calm,-,N/A,,Partly Cloudy,0,2013-01-07 10:45:00
3:53 AM,-0.9,-4.0,87,30.34,6.0,ESE,3.5,-,N/A,,Partly Cloudy,110,2013-01-07 10:53:00
4:06 AM,-0.4,-2.2,92,30.16,6.0,Calm,Calm,-,N/A,,Mostly Cloudy,0,2013-01-07 11:06:00
4:38 AM,1.4,-2.2,85,30.17,1.8,North,3.5,-,N/A,,Overcast,360,2013-01-07 11:38:00
4:41 AM,1.4,-0.4,92,30.16,0.8,Calm,Calm,-,N/A,,Overcast,0,2013-01-07 11:41:00
4:53 AM,1.9,-0.0,91,30.34,0.5,North,4.6,-,N/A,Fog,Light Freezing Fog,360,2013-01-07 11:53:00
5:02 AM,1.4,-0.4,92,30.17,1.5,Calm,Calm,-,N/A,,Overcast,0,2013-01-07 12:02:00
5:10 AM,1.4,-0.4,92,30.18,2.0,Calm,Calm,-,N/A,,Overcast,0,2013-01-07 12:10:00
5:20 AM,1.4,-0.4,92,30.18,1.8,ENE,3.5,-,N/A,,Overcast,70,2013-01-07 12:20:00
5:28 AM,1.4,-0.4,92,30.18,1.0,Calm,Calm,-,N/A,,Overcast,0,2013-01-07 12:28:00
5:34 AM,1.4,-0.4,92,30.17,2.0,SE,3.5,-,N/A,,Overcast,130,2013-01-07 12:34:00
5:42 AM,1.4,-2.2,85,30.17,4.0,ESE,3.5,-,N/A,,Overcast,120,2013-01-07 12:42:00
5:53 AM,1.0,-2.0,87,30.36,5.0,Calm,Calm,-,N/A,,Mostly Cloudy,0,2013-01-07 12:53:00
6:05 AM,-0.4,-2.2,92,30.14,5.0,Calm,Calm,-,N/A,,Scattered Clouds,0,2013-01-07 13:05:00
6:46 AM,-0.4,-4.0,85,30.14,6.0,Calm,Calm,-,N/A,,Mostly Cloudy,0,2013-01-07 13:46:00
6:53 AM,-0.0,-4.0,83,30.36,6.0,NNW,3.5,-,N/A,,Mostly Cloudy,330,2013-01-07 13:53:00
7:18 AM,-0.4,-4.0,85,30.15,7.0,Calm,Calm,-,N/A,,Scattered Clouds,0,2013-01-07 14:18:00
7:45 AM,-0.4,-5.8,78,30.16,7.0,Calm,Calm,-,N/A,,Mostly Cloudy,0,2013-01-07 14:45:00
7:53 AM,-0.0,-5.1,79,30.39,8.0,Calm,Calm,-,N/A,,Mostly Cloudy,0,2013-01-07 14:53:00
8:17 AM,-0.4,-4.0,85,30.16,6.0,Calm,Calm,-,N/A,,Scattered Clouds,0,2013-01-07 15:17:00
8:28 AM,1.4,-4.0,78,30.16,7.0,North,3.5,-,N/A,,Mostly Cloudy,350,2013-01-07 15:28:00
8:53 AM,1.9,-2.0,83,30.40,7.0,NNW,5.8,-,N/A,,Mostly Cloudy,340,2013-01-07 15:53:00
9:01 AM,1.4,-0.4,92,30.18,7.0,NNW,3.5,-,N/A,,Mostly Cloudy,340,2013-01-07 16:01:00
9:30 AM,3.2,-0.4,85,30.19,6.0,Calm,Calm,-,N/A,,Mostly Cloudy,0,2013-01-07 16:30:00
9:36 AM,3.2,-0.4,85,30.19,7.0,Calm,Calm,-,N/A,,Scattered Clouds,0,2013-01-07 16:36:00
9:53 AM,3.0,-0.0,87,30.40,7.0,SE,3.5,-,N/A,,Clear,140,2013-01-07 16:53:00
10:53 AM,6.1,6.1,100,30.41,7.0,Calm,Calm,-,N/A,,Clear,0,2013-01-07 17:53:00
11:53 AM,10.9,7.0,84,30.39,7.0,Calm,Calm,-,N/A,,Partly Cloudy,0,2013-01-07 18:53:00
12:53 PM,12.9,7.0,77,30.32,7.0,Calm,Calm,-,N/A,,Overcast,0,2013-01-07 19:53:00
1:53 PM,16.0,10.0,77,30.32,8.0,North,4.6,-,N/A,,Overcast,350,2013-01-07 20:53:00
2:53 PM,17.1,12.0,81,30.30,5.0,Calm,Calm,-,N/A,,Haze,0,2013-01-07 21:53:00
3:35 PM,17.6,12.2,79,30.12,2.5,Calm,Calm,-,0.00,Snow,Light Snow,0,2013-01-07 22:35:00
3:39 PM,17.6,12.2,79,30.12,1.2,Calm,Calm,-,0.00,Snow,Light Snow,0,2013-01-07 22:39:00
3:53 PM,19.0,14.0,81,30.31,1.0,Calm,Calm,-,0.00,Snow,Light Snow,0,2013-01-07 22:53:00
4:19 PM,19.4,15.8,86,30.11,2.0,Calm,Calm,-,0.00,Snow,Light Snow,0,2013-01-07 23:19:00
4:32 PM,19.4,15.8,86,30.11,4.0,Calm,Calm,-,0.00,,Overcast,0,2013-01-07 23:32:00
4:53 PM,19.9,16.0,85,30.27,5.0,SE,3.5,-,0.00,,Overcast,140,2013-01-07 23:53:00
5:53 PM,21.0,17.1,85,30.28,8.0,Calm,Calm,-,N/A,,Overcast,0,2013-01-08 00:53:00
6:34 PM,21.2,19.4,93,30.10,7.0,Calm,Calm,-,N/A,,Overcast,0,2013-01-08 01:34:00
6:53 PM,23.0,19.9,88,30.26,7.0,Calm,Calm,-,N/A,,Overcast,0,2013-01-08 01:53:00
7:53 PM,32.0,28.0,85,30.23,10.0,WSW,5.8,-,0.00,,Overcast,250,2013-01-08 02:53:00
8:11 PM,30.2,28.4,93,30.09,10.0,WSW,3.5,-,N/A,,Overcast,250,2013-01-08 03:11:00
8:53 PM,33.1,30.0,89,30.22,10.0,WSW,9.2,-,N/A,,Overcast,250,2013-01-08 03:53:00
9:53 PM,33.1,28.9,85,30.21,10.0,WSW,10.4,-,0.00,,Overcast,240,2013-01-08 04:53:00
10:53 PM,30.9,28.0,89,30.21,10.0,West,12.7,-,0.00,,Partly Cloudy,260,2013-01-08 05:53:00
11:53 PM,28.9,25.0,85,30.21,10.0,West,8.1,-,0.00,,Partly Cloudy,260,2013-01-08 06:53:00